Date,TemperatureHighF,TemperatureAvgF,TemperatureLowF,DewpointHighF,DewpointAvgF,DewpointLowF,HumidityHigh,HumidityAvg,HumidityLow,PressureMaxIn,PressureMinIn,WindSpeedMaxMPH,WindSpeedAvgMPH,GustSpeedMaxMPH,PrecipitationSumIn
2013-1-1,64.0,61.8,60.0,64.0,61.8,60.0,100,100,99,0.00,40.00,2,0,26,4.59
2013-1-2,63.0,62.1,60.0,63.0,62.1,60.0,100,100,100,0.00,40.00,1,0,2,6.16
2013-1-3,63.0,62.0,61.0,63.0,62.0,61.0,100,100,100,0.00,40.00,1,0,1,7.63
2013-1-4,62.0,61.5,61.0,62.0,61.2,60.0,100,99,96,0.00,40.00,1,0,1,1.08
2013-1-5,63.0,62.1,62.0,63.0,62.0,61.0,100,100,98,0.00,40.00,0,0,0,1.34
2013-1-6,63.0,62.5,61.0,63.0,62.5,61.0,100,100,100,0.00,40.00,0,0,1,0.92
2013-1-7,63.0,62.4,62.0,63.0,62.4,62.0,100,100,100,0.00,40.00,0,0,0,1.31
2013-1-8,63.0,62.2,61.0,63.0,62.2,61.0,100,100,100,0.00,40.00,0,0,0,1.22
2013-1-9,63.0,62.7,61.0,63.0,62.7,61.0,100,100,100,0.00,40.00,0,0,0,1.78
2013-1-10,63.0,62.2,61.0,63.0,62.2,61.0,100,100,98,0.00,40.00,0,0,0,0.42
2013-1-11,63.0,62.0,60.0,63.0,61.7,60.0,100,99,92,0.00,40.00,0,0,0,0.16
2013-1-12,65.0,63.2,62.0,65.0,62.7,58.0,100,98,84,0.00,40.00,0,0,0,0.38
2013-1-13,72.0,65.6,62.0,66.0,62.3,59.0,99,90,71,0.00,40.00,0,0,0,0.03
2013-1-14,65.0,63.4,60.0,65.0,63.3,60.0,100,100,93,0.00,40.00,0,0,0,0.93
2013-1-15,72.0,61.9,57.0,63.0,58.3,50.0,100,89,64,0.00,40.00,1,0,2,0.05
2013-1-16,71.0,61.9,57.0,59.0,53.5,42.0,98,75,53,0.00,40.00,1,0,1,0.01
2013-1-17,63.0,60.1,58.0,60.0,57.6,55.0,99,92,79,0.00,40.00,0,0,1,0.03
2013-1-18,68.0,60.9,57.0,59.0,56.0,52.0,95,85,66,0.00,40.00,0,0,1,0.00
2013-1-19,69.0,60.1,55.0,57.0,52.4,49.0,88,76,57,0.00,40.00,0,0,1,0.00
2013-1-20,62.0,59.2,58.0,55.0,53.3,51.0,88,81,72,0.00,40.00,1,0,1,0.00
2013-1-21,61.0,60.0,58.0,60.0,56.6,54.0,98,89,81,0.00,40.00,1,0,1,0.00
2013-1-22,63.0,61.1,60.0,61.0,59.3,56.0,98,94,88,0.00,40.00,0,0,1,0.00
2013-1-23,62.0,60.6,59.0,62.0,59.6,55.0,100,96,85,0.00,40.00,0,0,0,1.12
2013-1-24,65.0,61.7,61.0,65.0,61.2,57.0,100,98,85,0.00,40.00,0,0,1,2.80
2013-1-25,68.0,63.9,61.0,64.0,61.6,59.0,99,93,76,0.00,40.00,0,0,1,0.01
2013-1-26,69.0,63.0,59.0,62.0,59.9,55.0,98,90,73,0.00,40.00,0,0,0,0.03
2013-1-27,65.0,62.4,57.0,63.0,61.6,57.0,99,97,93,0.00,40.00,0,0,0,2.42
2013-1-28,63.0,60.4,57.0,63.0,60.4,57.0,100,99,95,0.00,40.00,0,0,0,3.65
2013-1-29,69.0,62.2,59.0,63.0,60.6,58.0,98,95,81,0.00,40.00,0,0,0,0.11
2013-1-30,65.0,62.5,61.0,63.0,60.7,57.0,99,94,87,0.00,40.00,0,0,0,0.42
2013-1-31,62.0,61.6,60.0,62.0,61.6,60.0,100,100,100,0.00,40.00,0,0,0,0.07
2013-2-1,63.0,60.7,58.0,60.0,57.8,54.0,100,91,78,0.00,40.00,0,0,0,0.03
2013-2-2,63.0,61.3,60.0,60.0,58.7,57.0,98,91,85,0.00,40.00,0,0,0,0.00
2013-2-3,62.0,59.6,58.0,58.0,55.7,54.0,97,88,81,0.00,40.00,0,0,0,0.00
2013-2-4,61.0,60.0,59.0,60.0,56.7,52.0,99,90,79,0.00,40.00,0,0,0,0.27
2013-2-5,63.0,60.5,59.0,60.0,58.0,55.0,99,92,81,0.00,40.00,0,0,0,0.32
2013-2-6,62.0,60.9,59.0,62.0,60.8,59.0,100,99,97,0.00,40.00,0,0,1,2.23
2013-2-7,63.0,62.4,61.0,63.0,62.4,61.0,100,100,100,0.00,40.00,0,0,0,0.92
2013-2-8,64.0,62.3,61.0,63.0,62.1,61.0,100,99,94,0.00,40.00,0,0,1,0.10
2013-2-9,63.0,61.5,61.0,62.0,60.9,59.0,100,98,92,0.00,40.00,0,0,0,0.02
2013-2-10,62.0,61.2,60.0,62.0,61.1,59.0,100,99,96,0.00,40.00,0,0,0,0.56
2013-2-11,62.0,60.4,59.0,62.0,60.4,59.0,100,100,100,0.00,40.00,0,0,0,1.86
2013-2-12,59.0,58.3,58.0,59.0,56.5,51.0,100,94,78,0.00,40.00,0,0,0,0.95
2013-2-13,60.0,58.4,57.0,57.0,54.0,51.0,96,86,77,0.00,40.00,0,0,0,0.05
2013-2-14,62.0,59.1,58.0,58.0,56.0,52.0,96,89,80,0.00,40.00,0,0,0,0.03
2013-2-15,63.0,60.8,59.0,62.0,59.3,55.0,100,95,83,0.00,40.00,0,0,1,0.03
2013-2-16,62.0,60.9,60.0,62.0,58.6,55.0,100,93,82,0.00,40.00,0,0,0,0.08
2013-2-17,63.0,60.5,59.0,59.0,57.8,55.0,98,91,82,0.00,40.00,0,0,0,0.16
2013-2-18,62.0,60.2,58.0,60.0,56.6,53.0,98,88,76,0.00,40.00,0,0,0,0.03
2013-2-19,61.0,59.3,58.0,60.0,57.4,53.0,99,94,81,0.00,40.00,0,0,0,0.53
2013-2-20,61.0,60.3,60.0,61.0,59.8,58.0,100,98,92,0.00,40.00,0,0,0,0.39
2013-2-21,62.0,60.7,59.0,62.0,60.5,58.0,100,99,94,0.00,40.00,0,0,0,1.16
2013-2-22,62.0,60.8,60.0,62.0,60.8,60.0,100,100,100,0.00,40.00,1,0,5,3.72
2013-2-23,61.0,60.4,59.0,61.0,60.4,59.0,100,100,100,0.00,40.00,0,0,2,1.17
2013-2-24,62.0,60.1,59.0,60.0,58.9,58.0,100,96,90,0.00,40.00,1,0,2,0.48
2013-2-25,61.0,60.2,59.0,61.0,58.8,57.0,100,95,89,0.00,40.00,0,0,1,0.72
2013-2-26,62.0,60.4,59.0,61.0,59.7,58.0,100,98,92,0.00,40.00,0,0,1,0.88
2013-2-27,63.0,60.7,59.0,60.0,57.1,53.0,99,88,74,0.00,40.00,0,0,1,0.04
2013-2-28,63.0,60.6,60.0,59.0,56.5,54.0,95,87,73,0.00,40.00,0,0,1,0.02
2013-3-1,61.0,59.9,59.0,58.0,56.0,52.0,94,87,79,0.00,40.00,0,0,1,0.03
2013-3-2,63.0,60.0,58.0,58.0,55.5,52.0,96,85,71,0.00,40.00,1,0,2,0.07
2013-3-3,63.0,60.2,59.0,57.0,53.0,49.0,94,78,66,0.00,40.00,1,0,5,0.03
2013-3-4,63.0,59.9,58.0,56.0,53.8,50.0,91,80,71,0.00,40.00,1,0,5,0.00
2013-3-5,64.0,60.3,58.0,59.0,54.7,51.0,96,82,68,0.00,40.00,1,0,2,0.00
2013-3-6,63.0,60.6,59.0,61.0,59.5,57.0,99,96,83,0.00,40.00,1,0,2,0.04
2013-3-7,72.0,61.7,58.0,63.0,59.9,57.0,99,94,73,0.00,40.00,1,0,2,0.12
2013-3-8,71.0,62.8,58.0,61.0,55.5,45.0,98,79,39,0.00,40.00,0,0,0,0.08
2013-3-9,68.0,63.2,60.0,64.0,61.2,57.0,99,94,78,0.00,40.00,0,0,0,0.34
2013-3-10,62.0,60.5,59.0,62.0,60.5,59.0,99,99,99,0.00,40.00,0,0,0,1.52
2013-3-11,66.0,60.6,58.0,62.0,58.7,55.0,98,94,87,0.00,40.00,0,0,0,0.02
2013-3-12,64.0,60.6,59.0,61.0,57.7,55.0,96,90,81,0.00,40.00,0,0,0,0.00
2013-3-13,62.0,59.5,58.0,58.0,55.9,54.0,95,88,79,0.00,40.00,0,0,0,0.00
2013-3-14,68.0,61.0,58.0,63.0,56.9,54.0,96,87,64,0.00,40.00,0,0,0,0.00
2013-3-15,69.0,60.3,56.0,58.0,54.9,52.0,97,84,64,0.00,40.00,0,0,0,0.05
2013-3-16,65.0,58.9,55.0,56.0,53.0,49.0,98,82,61,0.00,40.00,0,0,0,0.05
2013-3-17,67.0,57.9,54.0,55.0,52.7,50.0,95,84,60,0.00,40.00,0,0,0,0.00
2013-3-18,63.0,57.8,55.0,57.0,54.5,51.0,96,89,76,0.00,40.00,0,0,0,0.00
2013-3-19,70.0,61.8,57.0,60.0,56.7,54.0,95,84,61,0.00,40.00,0,0,0,0.00
2013-3-20,75.0,65.2,60.0,61.0,57.2,53.0,96,77,52,0.00,40.00,0,0,0,0.00
2013-3-21,73.0,66.6,60.0,64.0,59.6,54.0,95,79,64,0.00,40.00,0,0,0,0.03
2013-3-22,67.0,64.0,62.0,65.0,62.8,61.0,99,96,83,0.00,40.00,0,0,0,0.34
2013-3-23,62.0,60.5,60.0,61.0,60.4,60.0,99,99,98,0.00,40.00,0,0,0,1.91
2013-3-24,62.0,61.0,60.0,62.0,61.0,60.0,100,99,99,0.00,40.00,0,0,0,3.11
2013-3-25,64.0,62.6,61.0,64.0,62.6,61.0,100,100,99,0.00,40.00,0,0,0,0.39
2013-3-26,67.0,63.2,62.0,67.0,62.5,60.0,100,98,85,0.00,40.00,0,0,0,0.12
2013-3-27,63.0,62.1,62.0,63.0,62.1,62.0,100,100,99,0.00,40.00,0,0,0,2.15
2013-3-28,62.0,61.3,60.0,62.0,61.1,60.0,100,99,98,0.00,40.00,0,0,0,0.90
2013-3-29,62.0,60.4,59.0,62.0,60.4,59.0,100,100,100,0.00,40.00,0,0,0,0.89
2013-3-30,64.0,60.9,57.0,62.0,58.4,-99.9,100,97,87,0.00,40.00,0,0,0,0.10
2013-3-31,67.0,57.9,53.0,57.0,50.7,47.0,99,78,58,0.00,40.00,0,0,0,0.08
2013-4-1,66.0,57.7,54.0,57.0,52.3,47.0,91,82,68,0.00,40.00,0,0,0,0.03
2013-4-2,66.0,58.5,54.0,54.0,51.9,49.0,94,80,63,0.00,40.00,0,0,0,0.02
2013-4-3,60.0,58.4,56.0,59.0,56.5,54.0,96,93,88,0.00,40.00,0,0,0,0.34
2013-4-4,64.0,61.3,59.0,62.0,59.8,58.0,99,95,87,0.00,40.00,0,0,0,0.80
2013-4-5,64.0,62.2,61.0,64.0,61.7,61.0,99,98,90,0.00,40.00,0,0,0,0.02
2013-4-6,66.0,64.7,64.0,66.0,64.7,64.0,100,100,99,0.00,40.00,0,0,0,0.20
2013-4-7,65.0,64.4,63.0,65.0,64.4,63.0,100,100,100,0.00,40.00,1,0,2,0.04
2013-4-8,66.0,63.4,63.0,66.0,63.2,61.0,100,99,94,0.00,40.00,1,0,1,0.02
2013-4-9,67.0,63.5,62.0,65.0,62.8,61.0,100,98,88,0.00,40.00,0,0,0,0.08
2013-4-10,66.0,63.8,63.0,65.0,63.5,62.0,100,99,88,0.00,40.00,0,0,0,0.07
2013-4-11,68.0,65.1,62.0,66.0,64.2,61.0,100,97,85,0.00,40.00,0,0,0,0.72
2013-4-12,69.0,64.8,63.0,67.0,63.7,60.0,100,96,84,0.00,40.00,0,0,0,1.08
2013-4-13,72.0,65.3,63.0,67.0,62.8,58.0,98,92,79,0.00,40.00,0,0,0,0.40
2013-4-14,68.0,64.4,62.0,66.0,63.4,61.0,99,97,86,0.00,40.00,0,0,0,0.87
2013-4-15,69.0,64.1,62.0,67.0,63.4,61.0,100,98,92,0.00,40.00,0,0,0,0.48
2013-4-16,75.0,66.5,63.0,67.0,62.4,58.0,99,88,72,0.00,40.00,0,0,0,0.34
2013-4-17,65.0,64.1,63.0,65.0,64.1,63.0,100,100,99,0.00,40.00,0,0,0,0.19
2013-4-18,65.0,63.3,62.0,65.0,63.3,62.0,100,100,99,0.00,40.00,0,0,1,0.28
2013-4-19,65.0,63.8,63.0,65.0,63.8,63.0,100,100,100,0.00,40.00,0,0,0,2.45
2013-4-20,70.0,64.5,62.0,68.0,63.8,62.0,100,98,84,0.00,40.00,0,0,2,0.46
2013-4-21,71.0,65.2,62.0,65.0,63.0,60.0,99,93,76,0.00,40.00,1,0,1,0.05
2013-4-22,69.0,65.3,63.0,68.0,64.3,62.0,99,96,91,0.00,40.00,0,0,0,0.33
2013-4-23,69.0,65.3,64.0,66.0,64.7,63.0,99,98,88,0.00,40.00,0,0,0,0.41
2013-4-24,69.0,64.4,62.0,67.0,63.9,62.0,100,98,84,0.00,40.00,0,0,0,6.85
2013-4-25,67.0,64.8,63.0,66.0,63.9,62.0,100,97,91,0.00,40.00,1,0,1,4.11
2013-4-26,66.0,63.6,62.0,64.0,62.4,60.0,100,96,84,0.00,40.00,0,0,0,0.04
2013-4-27,71.0,65.3,63.0,64.0,61.9,54.0,99,89,73,0.00,40.00,0,0,0,0.02
2013-4-28,74.0,67.0,62.0,66.0,61.7,54.0,99,84,66,0.00,40.00,0,0,0,0.01
2013-4-29,72.0,67.1,64.0,68.0,64.6,62.0,99,92,75,0.00,40.00,0,0,0,0.05
2013-4-30,71.0,66.1,64.0,66.0,64.6,62.0,99,95,79,0.00,40.00,0,0,0,1.00
2013-5-1,67.0,65.2,64.0,66.0,64.5,63.0,100,97,87,0.00,40.00,0,0,0,0.01
2013-5-2,66.0,64.3,63.0,66.0,64.3,62.0,100,100,99,0.00,40.00,0,0,0,0.66
2013-5-3,69.0,64.9,63.0,65.0,63.1,61.0,100,94,85,0.00,40.00,0,0,0,0.15
2013-5-4,72.0,65.2,63.0,65.0,62.9,61.0,99,93,74,0.00,40.00,0,0,0,0.27
2013-5-5,65.0,63.7,62.0,65.0,63.7,62.0,100,100,99,0.00,40.00,0,0,0,0.66
2013-5-6,69.0,63.5,60.0,63.0,60.7,55.0,100,91,76,0.00,40.00,0,0,0,0.41
2013-5-7,71.0,63.5,61.0,62.0,59.7,57.0,94,88,73,0.00,40.00,0,0,0,0.00
2013-5-8,75.0,64.2,59.0,64.0,60.1,54.0,97,88,58,0.00,40.00,0,0,0,0.00
2013-5-9,73.0,64.8,63.0,64.0,62.3,57.0,99,92,69,0.00,40.00,0,0,0,0.02
2013-5-10,67.0,63.1,63.0,65.0,60.1,-99.9,100,98,90,0.00,40.00,0,0,0,0.65
2013-5-11,65.0,62.4,62.0,64.0,61.2,-99.9,100,99,95,0.00,40.00,0,0,0,2.66
2013-5-12,65.0,62.8,61.0,65.0,62.8,61.0,100,100,100,0.00,40.00,1,0,8,6.79
2013-5-13,65.0,64.6,63.0,65.0,64.6,63.0,100,100,100,0.00,40.00,0,0,1,6.09
2013-5-14,67.0,65.4,65.0,67.0,65.4,65.0,100,100,98,0.00,40.00,3,0,69,0.25
2013-5-15,67.0,65.3,64.0,67.0,64.6,63.0,100,97,87,0.00,40.00,1,0,12,0.05
2013-5-16,67.0,62.2,64.0,65.0,48.7,-99.9,100,97,89,0.00,40.00,0,0,2,0.10
2013-5-17,67.0,64.3,63.0,65.0,61.7,-99.9,100,97,84,0.00,40.00,1,0,27,0.46
2013-5-18,68.0,64.5,63.0,66.0,64.0,62.0,100,98,88,0.00,40.00,0,0,0,0.97
2013-5-19,69.0,64.2,61.0,65.0,63.5,60.0,100,97,85,0.00,40.00,0,0,0,0.50
2013-5-20,70.0,62.9,60.0,62.0,58.6,55.0,100,86,58,0.00,40.00,0,0,0,0.01
2013-5-21,77.0,65.2,60.0,62.0,58.2,53.0,93,79,51,0.00,40.00,6,2,15,0.00
2013-5-22,74.0,66.3,63.0,67.0,63.3,59.0,100,90,72,0.00,40.00,7,4,13,0.14
2013-5-23,71.0,67.7,66.0,67.0,64.0,56.0,100,88,69,0.00,40.00,16,8,29,0.14
2013-5-24,67.0,65.5,64.0,66.0,65.4,63.0,100,100,97,0.00,40.00,24,15,37,0.32
2013-5-25,66.0,64.9,63.0,66.0,64.8,63.0,100,100,98,0.00,40.00,23,18,40,0.35
2013-5-26,67.0,64.8,63.0,65.0,63.8,62.0,100,96,88,0.00,40.00,21,16,40,0.32
2013-5-27,68.0,64.9,63.0,65.0,64.2,63.0,100,98,87,0.00,40.00,20,15,36,0.37
2013-5-28,67.0,64.7,61.0,67.0,64.5,61.0,100,100,97,0.00,40.00,15,8,33,3.34
2013-5-29,71.0,66.3,64.0,68.0,65.9,63.0,100,98,91,0.00,40.00,12,5,25,5.77
2013-5-30,68.0,66.1,65.0,68.0,66.1,65.0,100,100,100,0.00,40.00,19,10,30,1.05
2013-5-31,68.0,66.5,66.0,68.0,66.5,66.0,100,100,100,0.00,40.00,18,13,34,0.91
2013-6-1,67.0,66.4,65.0,67.0,66.4,65.0,100,100,100,0.00,40.00,22,18,44,0.38
2013-6-2,68.0,66.2,65.0,68.0,66.1,64.0,100,100,95,0.00,40.00,24,19,49,0.85
2013-6-3,68.0,65.8,65.0,65.0,63.5,60.0,100,93,83,0.00,40.00,24,21,47,0.04
2013-6-4,69.0,65.4,64.0,65.0,64.2,63.0,100,96,86,0.00,40.00,25,20,42,0.01
2013-6-5,69.0,65.2,64.0,65.0,63.5,61.0,100,94,82,0.00,40.00,23,17,42,0.25
2013-6-6,68.0,65.1,64.0,64.0,62.5,61.0,98,92,80,0.00,40.00,24,17,43,0.05
2013-6-7,65.0,64.5,64.0,65.0,63.7,62.0,100,97,92,0.00,40.00,22,15,37,0.01
2013-6-8,68.0,64.9,63.0,65.0,64.0,63.0,100,97,88,0.00,40.00,18,15,33,0.07
2013-6-9,67.0,65.1,64.0,66.0,64.6,63.0,100,98,92,0.00,40.00,20,16,34,0.03
2013-6-10,68.0,65.3,64.0,65.0,64.4,64.0,100,97,86,0.00,40.00,22,17,48,0.01
2013-6-11,67.0,65.3,64.0,66.0,65.1,64.0,100,99,94,0.00,40.00,19,14,33,0.20
2013-6-12,67.0,65.3,64.0,66.0,64.9,62.0,100,99,93,0.00,40.00,26,18,43,0.50
2013-6-13,66.0,64.9,64.0,66.0,64.9,64.0,100,100,99,0.00,40.00,22,17,43,0.44
2013-6-14,66.0,64.8,64.0,66.0,64.5,64.0,100,99,95,0.00,40.00,22,17,40,0.69
2013-6-15,66.0,64.4,64.0,65.0,64.2,64.0,100,99,95,0.00,40.00,20,16,34,0.41
2013-6-16,67.0,64.7,64.0,66.0,64.3,64.0,100,99,89,0.00,40.00,16,14,36,0.29
2013-6-17,66.0,64.9,64.0,66.0,64.9,64.0,100,99,95,0.00,40.00,22,15,39,0.22
2013-6-18,66.0,65.4,65.0,66.0,65.2,64.0,100,99,94,0.00,40.00,22,17,41,0.20
2013-6-19,66.0,64.8,64.0,66.0,64.7,63.0,100,99,96,0.00,40.00,19,13,35,0.20